COSMOS 1650 (GLONASS)

Satellite information

Favourite Embed

Satellite Type and Status

PAYLOADIN ORBIT

Key statistics

Satellite COSMOS 1650 (GLONASS) at a glance.

Uptime

14772

Days in orbit

Revolutions

≈ 2.1

Per day

Orbit

MEO

Medium Earth Orbit

Inclination

64.7

Latest

Satellite identification and parameters

Extended collection of information and parameters for COSMOS 1650 (GLONASS).

Object identification

Identified? True

Debris? False

Object name: COSMOS 1650 (GLONASS)

International designator: 1985-037A

Object number (NORAD): 15697

Object ID (CCSDS): 15697

Country: COMMONWEALTH OF INDEPENDENT STATES (CIS)

Current information (Y/N): Y

RCS size: LARGE

Orbital parameters

Period: 675.733 minutes

Inclination: 64.7467 deg

SMA: 25508.021 km

Apoapsis: 19212.874 km

Periapsis: 19046.898 km

RAAN: 81.6385 deg

Eccentricy: 0.0032534

Argument of periapsis: 30.3774 deg

Mean anomaly: 147.6256 deg

Mean motion: 2.13102043 rev/day

Mean motion (dot): 0.00000039 rev/day2

B* drag term: 0.0 1/REarth

Two-line elements (TLE)

Creation date: Oct. 17, 2025, 6:46 a.m.

Reference frame: TEME

Reference center: EARTH

Epoch: Oct. 16, 2025, 1:31 p.m. UTC

TLE line 0: 0 COSMOS 1650 (GLONASS)

TLE line 1: 1 15697U 85037A 25289.56343274 .00000039 00000-0 00000+0 0 9992

TLE line 2: 2 15697 64.7467 81.6385 0032534 30.3774 147.6256 2.13102043291106

Live tracking on map

Real-time ground track for satellite COSMOS 1650 (GLONASS).

In-orbit conjunctions

There are no conjunctions computed for COSMOS 1650 (GLONASS), at the moment. Check back to stay up to date, as we update our databases every day.

Go to all conjunctions

Associated space launch

GLONASS navigation satellites

COSMOS 1650 (GLONASS) was lifted into orbit during the mission ‘Proton | Uragan 10 & 11’, on board a Proton space rocket.

The launch took place on May 17, 1985, 10:28 p.m. from 200/39 (200L).

For more information about the launch, click the button.

Launch to space Proton | Uragan 10 & 11
Proton | Uragan 10 & 11

Agency: N/A

Status: Launch Successful

Launch date: May 17, 1985, 10:28 p.m. UTC

Rocket: Proton

Launch pad: 200/39 (200L)

Location: Baikonur Cosmodrome, Republic of Kazakhstan

...

Latest news about this satellite

There are no fresh news available about this satellite. Check back as we update our databases every day.


Newsletter sign-up

Weekly statistics, charts and insights to help you stay on top of the space industry.